Location: Columbia
(38.9520°N, 92.3340°W)
Time: 21:49:54
(UTC-05:00)

CZ-2C R/B - Visible Passes

Search period start: 21 July 2017 00:00
Search period end: 31 July 2017 00:00
Orbit: 703 x 909 km, 98.2° (Epoch: 21 July)

Date Brightness Start Highest point End Pass type
(mag) Time Alt. Az. Time Alt. Az. Time Alt. Az.
21 Jul 5.0 01:40:46 18° WNW 01:40:46 18° WNW 01:43:09 10° NW visible
21 Jul 4.4 23:34:40 27° ENE 23:34:44 27° ENE 23:38:57 10° NNE visible
22 Jul 4.4 01:15:45 30° WNW 01:15:45 30° WNW 01:19:04 10° NNW visible
22 Jul 4.9 23:09:39 16° ENE 23:10:10 16° ENE 23:13:13 10° NNE visible
23 Jul 3.8 00:50:44 47° NW 00:50:44 47° NW 00:54:34 10° NNW visible
24 Jul 3.4 00:25:43 60° N 00:25:43 60° N 00:29:48 10° N visible
25 Jul 3.7 00:00:42 44° NE 00:00:42 44° NE 00:04:48 10° N visible
25 Jul 5.1 01:41:46 16° WNW 01:41:46 16° WNW 01:43:38 10° NW visible
25 Jul 4.4 23:35:41 27° ENE 23:35:41 27° ENE 23:39:32 10° NNE visible
26 Jul 4.6 01:16:45 27° WNW 01:16:45 27° WNW 01:19:36 10° NNW visible
26 Jul 4.9 23:10:39 16° ENE 23:10:48 16° ENE 23:13:49 10° NNE visible
27 Jul 4.0 00:51:44 41° NW 00:51:44 41° NW 00:55:08 10° NNW visible
28 Jul 3.7 00:26:43 52° N 00:26:43 52° N 00:30:23 10° N visible
29 Jul 3.9 00:01:41 41° NE 00:01:41 41° NE 00:05:23 10° N visible
29 Jul 5.3 01:42:45 15° WNW 01:42:45 15° WNW 01:44:05 10° NW visible
29 Jul 4.4 23:36:40 27° NE 23:36:40 27° NE 23:40:07 10° NNE visible
30 Jul 4.8 01:17:44 23° WNW 01:17:44 23° WNW 01:20:08 10° NW visible
30 Jul 4.9 23:11:39 16° ENE 23:11:39 16° ENE 23:14:25 10° NNE visible
